Location: Newark
(23.1300°N, 73.6109°E)
Time: 06:06:46
(UTC+00:00)

Hubble Space Telescope - Pass Details

Date: 30 July 2021
Orbit: 535 x 539 km, 28.5° (Epoch: 26 September)

Event Time Altitude Azimuth Distance (km) Brightness Sun altitude
Rises 14:47:42 0° 288° (WNW) 2,669 6.2 -13.3°
Reaches altitude 10° 14:50:02 10° 295° (WNW) 1,778 4.9 -13.8°
Maximum altitude 14:53:58 44° 8° (N) 742 1.6 -14.6°
Enters shadow 14:56:40 18° 74° (ENE) 1,331 2.4 -15.1°
